TimeICT,TemperatureF,Dew PointF,Humidity,Sea Level PressureIn,VisibilityMPH,Wind Direction,Wind SpeedMPH,Gust SpeedMPH,PrecipitationIn,Events,Conditions,WindDirDegrees,DateUTC
12:00 AM,84.2,73.4,70,29.65,6.2,WSW,9.2,-,N/A,,Mostly Cloudy,240,2013-06-14 17:00:00
12:30 AM,84.2,73.4,70,29.65,6.2,WSW,3.5,-,N/A,,Mostly Cloudy,240,2013-06-14 17:30:00
1:00 AM,84.2,73.4,70,29.62,6.2,WSW,5.8,-,N/A,,Mostly Cloudy,240,2013-06-14 18:00:00
1:30 AM,84.2,73.4,70,29.62,6.2,West,3.5,-,N/A,,Mostly Cloudy,270,2013-06-14 18:30:00
2:00 AM,82.4,73.4,74,29.62,6.2,WSW,5.8,-,N/A,,Mostly Cloudy,240,2013-06-14 19:00:00
2:30 AM,82.4,73.4,74,29.62,6.2,WSW,6.9,-,N/A,,Mostly Cloudy,240,2013-06-14 19:30:00
3:00 AM,82.4,73.4,74,29.62,6.2,WSW,3.5,-,N/A,,Mostly Cloudy,240,2013-06-14 20:00:00
3:30 AM,82.4,73.4,74,29.59,6.2,West,3.5,-,N/A,,Mostly Cloudy,270,2013-06-14 20:30:00
4:00 AM,82.4,73.4,74,29.59,6.2,West,3.5,-,N/A,,Mostly Cloudy,270,2013-06-14 21:00:00
4:30 AM,82.4,73.4,74,29.59,6.2,West,3.5,-,N/A,,Mostly Cloudy,280,2013-06-14 21:30:00
5:00 AM,82.4,75.2,79,29.62,6.2,West,4.6,-,N/A,,Mostly Cloudy,270,2013-06-14 22:00:00
5:30 AM,82.4,73.4,74,29.62,6.2,West,3.5,-,N/A,,Mostly Cloudy,260,2013-06-14 22:30:00
6:00 AM,80.6,73.4,79,29.62,6.2,WSW,3.5,-,N/A,,Mostly Cloudy,250,2013-06-14 23:00:00
6:30 AM,82.4,73.4,74,29.62,6.2,SSW,3.5,-,N/A,,Mostly Cloudy,200,2013-06-14 23:30:00
7:00 AM,82,73,67,29.65,6,SSW,5.8,,,,Partly Cloudy,210,2013-06-15 00:00:00
7:00 AM,82.4,73.4,74,29.62,6.2,SSW,5.8,-,N/A,,Mostly Cloudy,210,2013-06-15 00:00:00
7:30 AM,82.4,71.6,70,29.65,6.2,West,4.6,-,N/A,,Mostly Cloudy,270,2013-06-15 00:30:00
8:00 AM,82.4,73.4,74,29.65,6.2,West,5.8,-,N/A,,Mostly Cloudy,260,2013-06-15 01:00:00
8:30 AM,82.4,73.4,74,29.65,5.6,SSW,3.5,-,N/A,Rain,Light Rain,210,2013-06-15 01:30:00
9:00 AM,82.4,73.4,74,29.68,5.0,West,6.9,-,N/A,Rain,Light Rain,270,2013-06-15 02:00:00
9:30 AM,82.4,73.4,74,29.68,5.6,North,3.5,-,N/A,Rain,Light Rain,10,2013-06-15 02:30:00
10:00 AM,82.4,73.4,74,29.68,6.2,NNW,3.5,-,N/A,,Mostly Cloudy,340,2013-06-15 03:00:00
10:30 AM,84.2,75.2,74,29.65,6.2,West,3.5,-,N/A,,Mostly Cloudy,280,2013-06-15 03:30:00
11:00 AM,86.0,73.4,66,29.62,6.2,NW,8.1,-,N/A,,Mostly Cloudy,320,2013-06-15 04:00:00
11:30 AM,87.8,73.4,62,29.62,6.2,NW,3.5,-,N/A,,Mostly Cloudy,320,2013-06-15 04:30:00
12:00 PM,89.6,73.4,59,29.62,6.2,North,8.1,-,N/A,,Mostly Cloudy,350,2013-06-15 05:00:00
12:30 PM,89.6,71.6,55,29.62,6.2,NNW,4.6,-,N/A,,Mostly Cloudy,330,2013-06-15 05:30:00
1:00 PM,91,72,45,29.62,6,NNW,5.8,,,,Partly Cloudy,340,2013-06-15 06:00:00
1:00 PM,91.4,71.6,52,29.59,6.2,NNW,5.8,-,N/A,,Mostly Cloudy,340,2013-06-15 06:00:00
1:30 PM,93.2,71.6,49,29.59,6.2,North,3.5,-,N/A,,Mostly Cloudy,350,2013-06-15 06:30:00
2:00 PM,93.2,71.6,49,29.59,6.2,North,4.6,-,N/A,,Mostly Cloudy,350,2013-06-15 07:00:00
2:30 PM,93.2,71.6,49,29.56,6.2,NNW,5.8,-,N/A,,Mostly Cloudy,340,2013-06-15 07:30:00
3:00 PM,93.2,73.4,52,29.56,6.2,NNW,3.5,-,N/A,,Mostly Cloudy,330,2013-06-15 08:00:00
3:30 PM,93.2,73.4,52,29.56,6.2,WNW,5.8,-,N/A,,Mostly Cloudy,300,2013-06-15 08:30:00
4:00 PM,93.2,73.4,52,29.53,6.2,WSW,3.5,-,N/A,,Mostly Cloudy,240,2013-06-15 09:00:00
4:30 PM,93.2,73.4,52,29.56,6.2,WSW,5.8,-,N/A,,Mostly Cloudy,240,2013-06-15 09:30:00
5:00 PM,91.4,73.4,55,29.56,6.2,South,5.8,-,N/A,,Mostly Cloudy,180,2013-06-15 10:00:00
5:30 PM,91.4,73.4,55,29.56,6.2,South,8.1,-,N/A,,Mostly Cloudy,190,2013-06-15 10:30:00
6:00 PM,89.6,75.2,62,29.56,6.2,SSW,13.8,-,N/A,,Mostly Cloudy,210,2013-06-15 11:00:00
6:30 PM,89.6,75.2,62,29.59,6.2,West,6.9,-,N/A,,Mostly Cloudy,270,2013-06-15 11:30:00
7:00 PM,88,76,59,29.60,6,West,11.5,,,,Partly Cloudy,280,2013-06-15 12:00:00
7:00 PM,87.8,75.2,66,29.59,6.2,West,11.5,-,N/A,,Mostly Cloudy,280,2013-06-15 12:00:00
7:30 PM,87.8,75.2,66,29.59,6.2,West,5.8,-,N/A,,Mostly Cloudy,270,2013-06-15 12:30:00
8:00 PM,86.0,75.2,70,29.62,6.2,West,4.6,-,N/A,,Mostly Cloudy,270,2013-06-15 13:00:00
8:30 PM,86.0,77.0,74,29.62,6.2,SSW,8.1,-,N/A,,Mostly Cloudy,210,2013-06-15 13:30:00
9:00 PM,86.0,75.2,70,29.62,6.2,WSW,5.8,-,N/A,,Mostly Cloudy,250,2013-06-15 14:00:00
9:30 PM,84.2,77.0,79,29.65,6.2,SSW,4.6,-,N/A,,Mostly Cloudy,210,2013-06-15 14:30:00
10:00 PM,84.2,75.2,74,29.65,6.2,WSW,5.8,-,N/A,,Mostly Cloudy,240,2013-06-15 15:00:00
10:30 PM,84.2,75.2,74,29.65,6.2,SSW,5.8,-,N/A,,Mostly Cloudy,210,2013-06-15 15:30:00
11:00 PM,84.2,75.2,74,29.65,6.2,SSW,5.8,-,N/A,,Mostly Cloudy,210,2013-06-15 16:00:00
11:30 PM,84.2,75.2,74,29.65,6.2,SSW,3.5,-,N/A,,Mostly Cloudy,210,2013-06-15 16:30:00